This is the latest recevied weather packets stored in our database for station/object DM1RG-6. If no packets are shown the sender has not sent any weather packets the latest 1 day(s).
| Time | Temp. | Humidity | Pressure | Rain* | Wind** | Luminosity | Snow |
|---|---|---|---|---|---|---|---|
| 1778010843 | 15.56° C | 87% | 1006.5 hPa | 0 mm | 2.24 m/s, 37° | - | - |
| 1778010483 | 15.56° C | 87% | 1006.3 hPa | 0 mm | 2.24 m/s, 32° | - | - |
| 1778010123 | 15.56° C | 86% | 1006.1 hPa | 0 mm | 1.79 m/s, 30° | - | - |
| 1778009763 | 16.11° C | 86% | 1006.1 hPa | 0 mm | 1.79 m/s, 44° | - | - |
| 1778009404 | 16.11° C | 86% | 1006.1 hPa | 0 mm | 2.24 m/s, 51° | - | - |
| 1778009043 | 16.11° C | 85% | 1006 hPa | 0 mm | 2.68 m/s, 47° | - | - |
| 1778008683 | 16.11° C | 85% | 1006.2 hPa | 0 mm | 3.13 m/s, 48° | - | - |
| 1778008324 | 16.11° C | 85% | 1006.2 hPa | 0 mm | 2.68 m/s, 45° | - | - |
| 1778007964 | 16.11° C | 84% | 1006.2 hPa | 0 mm | 2.24 m/s, 37° | - | - |
| 1778007603 | 16.11° C | 84% | 1006.2 hPa | 0 mm | 2.68 m/s, 27° | - | - |
| 1778007243 | 16.67° C | 84% | 1006 hPa | 0 mm | 2.68 m/s, 22° | - | - |
| 1778006883 | 16.67° C | 83% | 1006.1 hPa | 0 mm | 2.68 m/s, 29° | - | - |
| 1778006523 | 16.67° C | 83% | 1006.2 hPa | 0 mm | 2.24 m/s, 36° | - | - |
| 1778006164 | 16.67° C | 83% | 1006.1 hPa | 0 mm | 2.68 m/s, 32° | - | - |
| 1778005804 | 16.67° C | 82% | 1006.3 hPa | 0 mm | 3.13 m/s, 35° | - | - |
| 1778005444 | 16.67° C | 82% | 1006.1 hPa | 0 mm | 3.13 m/s, 44° | - | - |
| 1778005083 | 17.22° C | 81% | 1006 hPa | 0 mm | 3.58 m/s, 45° | - | - |
| 1778004723 | 17.22° C | 81% | 1006.3 hPa | 0 mm | 3.58 m/s, 39° | - | - |
| 1778004364 | 17.22° C | 81% | 1006 hPa | 0 mm | 3.58 m/s, 40° | - | - |
| 1778004003 | 17.22° C | 80% | 1006 hPa | 0 mm | 3.58 m/s, 41° | - | - |
| 1778003643 | 17.78° C | 80% | 1005.9 hPa | 0 mm | 3.13 m/s, 27° | - | - |
| 1778003284 | 17.78° C | 79% | 1006.1 hPa | 0 mm | 2.68 m/s, 24° | - | - |
| 1778002923 | 18.33° C | 75% | 1005.9 hPa | 0 mm | 0.89 m/s, 6° | - | - |
| 1778002563 | 18.33° C | 74% | 1006 hPa | 0 mm | 0.89 m/s, 5° | - | - |
| 1778002204 | 18.33° C | 73% | 1005.9 hPa | 0 mm | 1.34 m/s, 25° | - | - |
* Rain latest hour (hover to see other rain measurements)
** Current wind speed in m/s (hover to see current wind gust speed)